Location: Unspecified
(48.5670°N, 0.0000°E)
Time: 19:12:52
(UTC+00:00)

Tiros 1 despin weight - Visible Passes

Search period start: 20 August 2019 00:00
Search period end: 30 August 2019 00:00
Orbit: 594 x 642 km, 48.2° (Epoch: 20 August)

Date Brightness Start Highest point End Pass type
(mag) Time Alt. Az. Time Alt. Az. Time Alt. Az.
20 Aug ? 01:33:19 36° E 01:33:19 36° E 01:36:12 10° E visible
20 Aug ? 03:10:21 23° W 03:13:13 87° S 03:17:50 10° E visible
21 Aug ? 01:49:07 56° ESE 01:49:07 56° ESE 01:52:51 10° E visible
21 Aug ? 03:26:11 16° W 03:29:51 84° S 03:34:28 10° E visible
22 Aug ? 02:04:59 84° SE 02:04:59 84° SE 02:09:29 10° E visible
22 Aug ? 03:42:03 11° W 03:46:27 71° SSW 03:51:03 10° ESE visible
23 Aug ? 00:43:54 14° E 00:43:54 14° E 00:44:31 10° E visible
23 Aug ? 02:20:58 68° W 02:21:32 87° S 02:26:08 10° E visible
23 Aug ? 03:58:34 10° W 04:03:00 53° SSW 04:07:29 10° SE visible
24 Aug ? 01:00:00 18° E 01:00:00 18° E 01:01:09 10° E visible
24 Aug ? 02:37:05 52° W 02:38:10 79° S 02:42:45 10° ESE visible
24 Aug ? 04:15:17 10° W 04:19:27 36° SSW 04:23:41 10° SE visible
25 Aug ? 01:16:18 20° E 01:16:18 20° E 01:17:47 10° E visible
25 Aug ? 02:53:24 42° W 02:54:45 64° SSW 02:59:17 10° ESE visible
25 Aug ? 04:32:11 10° W 04:35:49 24° SW 04:39:29 10° SSE visible
26 Aug ? 01:32:55 21° E 01:32:55 21° E 01:34:26 10° E visible
26 Aug ? 03:10:02 36° WSW 03:11:15 46° SSW 03:15:38 10° SE visible
27 Aug ? 01:49:54 17° ESE 01:49:54 17° ESE 01:51:01 10° ESE visible
27 Aug ? 03:27:03 29° SW 03:27:40 30° SSW 03:31:40 10° SSE visible
28 Aug ? 02:07:19 11° ESE 02:07:19 11° ESE 02:07:29 10° ESE visible
28 Aug ? 03:44:31 19° SSW 03:44:31 19° SSW 03:47:12 10° S visible
28 Aug ? 21:11:25 10° SSW 21:11:50 12° SSW 21:11:50 12° SSW visible
29 Aug ? 19:48:23 10° S 19:51:00 16° SE 19:51:56 15° SE visible
29 Aug ? 21:27:33 10° SW 21:29:04 20° SW 21:29:04 20° SW visible
